Powrót do katalogu

CZ-6A DEB

AktywnyPO
NORAD 61836·DEBRIS·🇨🇳 China

Wystrzelony Aug 6, 2024 z Taiyuan Satellite Launch Center

Loading…

Następne Przeloty (najbliższe 24 godziny)

TLE

ŚwieżeSource: Space-Track

Epoka: Sep 14, 2026, 00:42 UTC

1 61836U 24140ADC 26257.02985939  .00004063  00000-0  75324-3 0  9999
2 61836  89.0568 265.0147 0084549 306.9525  52.3967 14.62816219105915

Śledź CZ-6A DEB w czasie rzeczywistym z AllMySat

Download on the App Store